�������l�o���
Date,Time,MP-1(��Sv/h),MP-2(��Sv/h),MP-3(��Sv/h),MP-4(��Sv/h),MP-5(��Sv/h),MP-6(��Sv/h),MP-7(��Sv/h),MP-8(��Sv/h),����,����(m/s),���J
2019/12/06,00:00,0.710,1.029,0.688,1.286,0.899,0.408,0.717,0.680,��,3.5,��
2019/12/06,00:10,0.708,1.031,0.687,1.286,0.901,0.407,0.714,0.680,��,3.2,��
2019/12/06,00:20,0.708,1.028,0.688,1.286,0.901,0.409,0.717,0.680,��,1.4,��
2019/12/06,00:30,0.711,1.031,0.688,1.286,0.901,0.408,0.716,0.679,��,0.7,��
2019/12/06,00:40,0.709,1.028,0.688,1.283,0.899,0.409,0.716,0.678,��쐼,0.7,��
2019/12/06,00:50,0.709,1.029,0.688,1.287,0.901,0.408,0.715,0.679,�k��,2.0,��
2019/12/06,01:00,0.709,1.028,0.689,1.287,0.900,0.410,0.714,0.680,���k��,2.9,��
2019/12/06,01:10,0.710,1.031,0.688,1.285,0.900,0.409,0.715,0.677,���쐼,1.2,��
2019/12/06,01:20,0.711,1.030,0.687,1.287,0.901,0.409,0.716,0.679,���쐼,1.5,��
2019/12/06,01:30,0.709,1.029,0.691,1.287,0.901,0.410,0.715,0.680,���k��,3.0,��
2019/12/06,01:40,0.710,1.029,0.687,1.288,0.902,0.408,0.717,0.678,�k��,2.4,��
2019/12/06,01:50,0.710,1.030,0.689,1.285,0.901,0.408,0.714,0.679,�k�k��,0.8,��
2019/12/06,02:00,0.708,1.031,0.687,1.286,0.900,0.408,0.716,0.679,�k��,0.5,��
2019/12/06,02:10,0.710,1.030,0.688,1.286,0.900,0.408,0.716,0.680,�k��,1.0,��
2019/12/06,02:20,0.709,1.030,0.689,1.287,0.901,0.408,0.716,0.678,-,CALM,��
2019/12/06,02:30,0.710,1.029,0.686,1.284,0.900,0.409,0.716,0.678,�k�k��,0.7,��
2019/12/06,02:40,0.709,1.029,0.687,1.287,0.900,0.409,0.715,0.680,-,CALM,��
2019/12/06,02:50,0.711,1.028,0.689,1.286,0.899,0.409,0.716,0.679,��,0.5,��
2019/12/06,03:00,0.708,1.029,0.687,1.286,0.901,0.410,0.715,0.680,��쐼,0.8,��
2019/12/06,03:10,0.709,1.027,0.689,1.285,0.900,0.409,0.714,0.678,��,0.9,��
2019/12/06,03:20,0.708,1.028,0.688,1.283,0.901,0.408,0.716,0.677,��쐼,1.3,��
2019/12/06,03:30,0.709,1.029,0.689,1.285,0.899,0.406,0.714,0.678,���쐼,1.6,��
2019/12/06,03:40,0.709,1.028,0.687,1.285,0.901,0.409,0.715,0.678,���쐼,0.8,��
2019/12/06,03:50,0.710,1.029,0.689,1.287,0.900,0.408,0.714,0.678,���쐼,1.3,��
2019/12/06,04:00,0.709,1.031,0.689,1.285,0.901,0.408,0.714,0.678,���쐼,2.4,��
2019/12/06,04:10,0.708,1.027,0.687,1.285,0.900,0.409,0.716,0.679,��,2.1,��
2019/12/06,04:20,0.709,1.028,0.689,1.284,0.898,0.408,0.715,0.679,���k��,2.8,��
2019/12/06,04:30,0.710,1.030,0.687,1.285,0.902,0.408,0.713,0.679,���k��,3.1,��
2019/12/06,04:40,0.709,1.029,0.688,1.286,0.902,0.407,0.715,0.678,���k��,3.5,��
2019/12/06,04:50,0.708,1.030,0.687,1.286,0.899,0.407,0.715,0.678,���k��,3.5,��
2019/12/06,05:00,0.710,1.027,0.687,1.287,0.898,0.408,0.714,0.679,�k��,2.9,��
2019/12/06,05:10,0.708,1.029,0.687,1.284,0.899,0.408,0.714,0.679,�k��,3.4,��
2019/12/06,05:20,0.709,1.029,0.688,1.286,0.899,0.408,0.715,0.680,���k��,2.7,��
2019/12/06,05:30,0.707,1.028,0.687,1.285,0.898,0.408,0.715,0.677,���k��,1.2,��
2019/12/06,05:40,0.709,1.027,0.688,1.284,0.900,0.407,0.714,0.678,�k�k��,0.5,��
2019/12/06,05:50,0.709,1.028,0.686,1.284,0.899,0.408,0.714,0.677,�k�k��,0.8,��
2019/12/06,06:00,0.709,1.029,0.687,1.285,0.900,0.407,0.715,0.678,�k�k��,2.9,��
2019/12/06,06:10,0.708,1.028,0.688,1.284,0.898,0.408,0.714,0.679,�k��,4.2,��
2019/12/06,06:20,0.707,1.028,0.687,1.285,0.897,0.407,0.715,0.678,�k��,4.7,��
2019/12/06,06:30,0.708,1.029,0.686,1.285,0.900,0.407,0.713,0.678,�k��,4.4,��
2019/12/06,06:40,0.710,1.027,0.687,1.285,0.898,0.410,0.715,0.679,�k��,5.5,��
2019/12/06,06:50,0.710,1.028,0.688,1.285,0.899,0.408,0.714,0.678,�k��,6.0,��
2019/12/06,07:00,0.709,1.028,0.687,1.286,0.898,0.407,0.715,0.677,�k��,5.8,��
2019/12/06,07:10,0.709,1.029,0.687,1.286,0.900,0.407,0.715,0.680,�k��,3.4,��
2019/12/06,07:20,0.710,1.028,0.687,1.286,0.901,0.409,0.715,0.678,���k��,1.9,��
2019/12/06,07:30,0.709,1.028,0.686,1.284,0.900,0.408,0.716,0.678,���k��,3.5,��
2019/12/06,07:40,0.709,1.028,0.688,1.285,0.898,0.408,0.715,0.680,��,2.5,��
2019/12/06,07:50,0.708,1.028,0.687,1.288,0.898,0.408,0.714,0.678,�쐼,2.4,��
2019/12/06,08:00,0.708,1.028,0.688,1.287,0.900,0.407,0.717,0.677,���쐼,1.5,��
2019/12/06,08:10,0.710,1.030,0.688,1.283,0.899,0.406,0.716,0.678,��쐼,1.0,��
2019/12/06,08:20,0.708,1.029,0.688,1.285,0.900,0.408,0.716,0.678,��,0.7,��
2019/12/06,08:30,0.709,1.029,0.686,1.285,0.901,0.407,0.715,0.681,��,1.5,��
2019/12/06,08:40,0.707,1.024,0.685,1.285,0.900,0.407,0.716,0.679,��,3.2,��
2019/12/06,08:50,0.710,1.028,0.682,1.284,0.899,0.409,0.717,0.679,���k��,6.7,��
2019/12/06,09:00,0.709,1.028,0.684,1.287,0.901,0.407,0.717,0.679,��,5.5,��
2019/12/06,09:10,0.708,1.030,0.684,1.284,0.899,0.407,0.715,0.679,��,4.9,��
2019/12/06,09:20,0.709,1.027,0.685,1.285,0.900,0.410,0.719,0.679,��,6.0,��
2019/12/06,09:30,0.709,1.027,0.684,1.286,0.903,0.408,0.717,0.679,���k��,8.2,��
2019/12/06,09:40,0.711,1.027,0.685,1.286,0.901,0.409,0.718,0.679,��,7.5,��
2019/12/06,09:50,0.711,1.029,0.683,1.287,0.903,0.409,0.714,0.677,��,6.0,��
2019/12/06,10:00,0.710,1.027,0.687,1.287,0.903,0.409,0.714,0.680,���k��,5.8,��
2019/12/06,10:10,0.709,1.028,0.685,1.288,0.900,0.408,0.715,0.679,���k��,5.7,��
2019/12/06,10:20,0.709,1.027,0.684,1.284,0.901,0.410,0.715,0.680,���k��,4.9,��
2019/12/06,10:30,0.709,1.028,0.684,1.287,0.900,0.409,0.717,0.680,�k��,6.9,��
2019/12/06,10:40,0.711,-,0.685,1.286,0.900,0.409,0.716,0.678,�k��,6.9,��
2019/12/06,10:50,0.710,-,0.685,1.289,0.903,0.409,0.716,0.679,�k��,5.2,��
2019/12/06,11:00,0.711,-,0.688,1.289,0.902,0.409,0.714,0.680,���k��,5.5,��
2019/12/06,11:10,0.713,-,0.690,1.286,0.903,0.409,0.715,0.680,���k��,5.0,��
2019/12/06,11:20,0.712,-,0.689,1.290,0.901,0.409,0.718,0.680,�k��,4.6,��
2019/12/06,11:30,0.713,-,0.686,1.288,0.904,0.409,0.716,0.681,�k�k��,2.4,��
2019/12/06,11:40,0.712,-,0.688,1.290,0.904,0.410,0.716,0.681,�k�k��,5.8,��
2019/12/06,11:50,0.709,-,0.688,1.287,0.902,0.411,0.716,0.679,�k�k��,6.4,��
2019/12/06,12:00,0.713,-,0.690,1.287,0.905,0.408,0.716,0.681,�k��,4.9,��
2019/12/06,12:10,0.712,-,0.690,1.287,0.901,0.409,0.716,0.681,�k��,4.7,��
2019/12/06,12:20,0.710,-,0.689,1.286,0.902,0.408,0.715,0.680,�k��,4.0,��
2019/12/06,12:30,0.712,-,0.690,1.289,0.903,0.410,0.715,0.678,�k�k��,3.5,�L
2019/12/06,12:40,0.713,-,0.689,1.288,0.904,0.409,0.716,0.680,�k�k��,3.3,��
2019/12/06,12:50,0.712,-,0.687,1.290,0.903,0.410,0.717,0.680,�k,3.3,��
2019/12/06,13:00,0.711,-,0.687,1.287,0.902,0.410,0.717,0.681,�k,3.9,�L
2019/12/06,13:10,0.711,1.028,0.686,1.287,0.904,0.408,0.717,0.680,�k,3.1,�L
2019/12/06,13:20,0.713,1.032,0.686,1.288,0.903,0.409,0.718,0.681,�k�k��,6.3,�L
2019/12/06,13:30,0.712,1.030,0.686,1.290,0.902,0.408,0.718,0.680,�k��,6.3,��
2019/12/06,13:40,0.711,1.029,0.688,1.287,0.903,0.411,0.717,0.680,�k�k��,5.2,�L
2019/12/06,13:50,0.710,1.033,0.687,1.287,0.904,0.409,0.716,0.680,�k�k��,4.0,��
2019/12/06,14:00,0.711,1.031,0.686,1.288,0.904,0.409,0.716,0.680,�k�k��,3.3,��
2019/12/06,14:10,0.712,1.030,0.688,1.290,0.904,0.408,0.715,0.680,�k��,3.8,�L
2019/12/06,14:20,0.712,1.030,0.690,1.289,0.904,0.410,0.717,0.679,�k�k��,3.0,��
2019/12/06,14:30,0.712,1.030,0.688,1.289,0.903,0.408,0.717,0.681,�k�k��,4.5,��
2019/12/06,14:40,0.713,1.032,0.688,1.288,0.903,0.407,0.716,0.681,�k��,4.3,�L
2019/12/06,14:50,0.717,1.029,0.688,1.289,0.903,0.409,0.716,0.680,�k��,3.9,��
2019/12/06,15:00,0.714,1.032,0.689,1.290,0.902,0.408,0.717,0.679,�k��,3.5,��
2019/12/06,15:10,0.715,1.034,0.690,1.287,0.903,0.410,0.716,0.680,�k��,3.2,��
2019/12/06,15:20,0.714,1.031,0.688,1.289,0.903,0.409,0.715,0.679,�k��,4.1,��
2019/12/06,15:30,0.713,1.034,0.688,1.288,0.903,0.408,0.716,0.679,�k�k��,3.4,��
2019/12/06,15:40,0.715,1.033,0.689,1.289,0.903,0.409,0.715,0.678,�k��,3.3,��
2019/12/06,15:50,0.712,1.032,0.689,1.290,0.904,0.409,0.718,0.680,�k��,4.6,��
2019/12/06,16:00,0.715,1.032,0.687,1.288,0.902,0.408,0.717,0.679,�k��,3.8,��
2019/12/06,16:10,0.714,1.032,0.687,1.288,0.903,0.410,0.717,0.679,�k��,3.8,��
2019/12/06,16:20,0.713,1.032,0.688,1.289,0.906,0.408,0.717,0.680,�k�k��,3.3,��
2019/12/06,16:30,0.713,1.034,0.689,1.288,0.903,0.409,0.717,0.679,�k�k��,3.2,��
2019/12/06,16:40,0.712,1.031,0.689,1.288,0.903,0.408,0.716,0.680,�k��,3.8,��
2019/12/06,16:50,0.713,1.032,0.689,1.289,0.903,0.407,0.715,0.679,�k��,4.3,��
2019/12/06,17:00,0.712,1.031,0.688,1.287,0.903,0.409,0.715,0.678,�k��,3.6,��
2019/12/06,17:10,0.713,1.033,0.688,1.288,0.901,0.409,0.717,0.679,���k��,2.8,��
2019/12/06,17:20,0.713,1.034,0.688,1.290,0.901,0.407,0.715,0.680,��,3.4,��
2019/12/06,17:30,0.712,1.034,0.689,1.290,0.902,0.409,0.716,0.679,��,3.2,��
2019/12/06,17:40,0.713,1.033,0.688,1.290,0.902,0.407,0.715,0.678,���k��,2.6,��
2019/12/06,17:50,0.710,1.032,0.689,1.288,0.902,0.409,0.716,0.678,���k��,3.2,��
2019/12/06,18:00,0.712,1.033,0.689,1.288,0.902,0.409,0.716,0.679,���k��,3.5,��
2019/12/06,18:10,0.711,1.032,0.689,1.288,0.900,0.409,0.714,0.680,���k��,4.4,��
2019/12/06,18:20,0.712,1.032,0.688,1.287,0.902,0.408,0.716,0.679,���k��,3.4,��
2019/12/06,18:30,0.711,1.033,0.688,1.287,0.902,0.408,0.714,0.679,���k��,4.0,��
2019/12/06,18:40,0.711,1.032,0.688,1.288,0.901,0.409,0.715,0.678,���k��,6.0,��
2019/12/06,18:50,0.712,1.033,0.690,1.289,0.900,0.406,0.716,0.679,���k��,4.9,��
2019/12/06,19:00,0.712,1.033,0.687,1.286,0.902,0.407,0.716,0.679,�k��,2.5,��
2019/12/06,19:10,0.712,1.032,0.688,1.288,0.903,0.408,0.716,0.678,�k�k��,2.4,��
2019/12/06,19:20,0.713,1.032,0.689,1.288,0.900,0.407,0.715,0.679,�k�k��,1.6,��
2019/12/06,19:30,0.711,1.034,0.688,1.289,0.903,0.409,0.716,0.678,�k�k��,3.0,��
2019/12/06,19:40,0.711,1.033,0.689,1.288,0.903,0.407,0.716,0.680,�k�k��,4.0,��
2019/12/06,19:50,0.709,1.031,0.687,1.287,0.901,0.408,0.716,0.678,�k��,3.9,��
2019/12/06,20:00,0.712,1.032,0.689,1.288,0.901,0.409,0.716,0.678,�k��,3.1,��
2019/12/06,20:10,0.709,1.032,0.689,1.288,0.902,0.408,0.716,0.680,���k��,3.3,��
2019/12/06,20:20,0.713,1.031,0.690,1.285,0.903,0.408,0.715,0.679,�k��,2.4,��
2019/12/06,20:30,0.711,1.032,0.687,1.289,0.903,0.407,0.716,0.679,���k��,1.9,��
2019/12/06,20:40,0.712,1.032,0.687,1.288,0.902,0.408,0.715,0.679,�k��,2.2,��
2019/12/06,20:50,0.711,1.031,0.689,1.291,0.901,0.408,0.716,0.679,���k��,2.5,��
2019/12/06,21:00,0.710,1.033,0.690,1.290,0.901,0.407,0.716,0.680,���k��,2.2,��
2019/12/06,21:10,0.711,1.033,0.690,1.287,0.903,0.407,0.713,0.678,�k��,1.8,��
2019/12/06,21:20,0.711,1.031,0.687,1.291,0.903,0.409,0.715,0.678,�k�k��,1.7,��
2019/12/06,21:30,0.710,1.032,0.688,1.286,0.900,0.409,0.716,0.680,�k,1.4,��
2019/12/06,21:40,0.712,1.031,0.689,1.288,0.901,0.407,0.714,0.679,�k,1.6,��
2019/12/06,21:50,0.710,1.030,0.688,1.288,0.902,0.408,0.715,0.680,�k�k��,0.8,��
2019/12/06,22:00,0.711,1.030,0.687,1.288,0.902,0.409,0.717,0.679,�k,1.0,��
2019/12/06,22:10,0.712,1.032,0.686,1.289,0.902,0.406,0.715,0.679,�k�k��,1.5,��
2019/12/06,22:20,0.712,1.032,0.689,1.290,0.902,0.408,0.715,0.679,�k�k��,2.1,��
2019/12/06,22:30,0.712,1.030,0.688,1.288,0.901,0.407,0.714,0.679,�k,2.4,��
2019/12/06,22:40,0.710,1.032,0.688,1.288,0.900,0.408,0.715,0.679,�k�k��,2.3,��
2019/12/06,22:50,0.711,1.033,0.687,1.287,0.902,0.408,0.713,0.679,�k�k��,1.8,��
2019/12/06,23:00,0.711,1.031,0.690,1.289,0.902,0.409,0.716,0.680,�k,1.5,��
2019/12/06,23:10,0.710,1.033,0.689,1.287,0.902,0.407,0.715,0.677,�k,0.7,��
2019/12/06,23:20,0.711,1.033,0.688,1.288,0.903,0.409,0.714,0.678,��,0.5,��
2019/12/06,23:30,0.710,1.029,0.687,1.288,0.902,0.409,0.715,0.678,-,CALM,��
2019/12/06,23:40,0.711,1.032,0.689,1.288,0.901,0.407,0.715,0.679,�쐼,1.1,��
2019/12/06,23:50,0.711,1.031,0.688,1.287,0.901,0.408,0.713,0.679,��쐼,1.8,��
